Regional Weather Roundup
Issued by NWS

Home | Current Version | Previous Version | Graphics & Text | Print | Product List | Glossary On
Versions: 1 2 3 4 5 6 7 8 9 10 11 12 13 14 15 16 17 18 19 20 21 22 23 24 25 26 27 28 29 30 31 32 33 34 35 36 37 38 39 40 41 42 43 44 45 46 47 48 49 50
000
ASUS45 KSLC 220610
RWRUT

UTAH REGIONAL WEATHER ROUNDUP
NATIONAL WEATHER SERVICE SALT LAKE CITY UT
1200 AM MDT TUE JUL 22 2014

UTZ001>011-023>025-220700-

NORTHERN UTAH

CITY           SKY/WX    TMP DP  RH WIND       PRES   REMARKS
HILL AFB       CLEAR     80  38  22 E22       30.11S
LOGAN          NOT AVBL
OGDEN          PTCLDY    76  39  26 SW7       30.09R
PROVO AIRPORT  CLEAR     72  43  35 SE6       30.14R
SALT LAKE CITY PTCLDY    75  47  36 NE3       30.07R
VERNAL         CLEAR     72  35  25 W8        30.16R
WENDOVER       CLEAR     75  46  35 N23G32    30.11R
HEBER CITY     CLEAR     59  37  44 CALM      30.22R
WEST JORDAN    CLEAR     77  48  36 W6        30.12R

$$

UTZ012>022-026-027-220700-

SOUTHERN UTAH

CITY           SKY/WX    TMP DP  RH WIND       PRES   REMARKS
BRYCE CANYON   CLEAR     51  25  36 W6        30.43R
CEDAR CITY     CLEAR     66  30  26 CALM      30.25R
MILFORD        CLEAR     75  24  15 S12       30.18S
MOAB/CYNLANDS  CLEAR     80  26  13 SW10      30.10R
PRICE          CLEAR     73  22  14 N9        30.23R
ST GEORGE      CLEAR     82  25  12 SE7       30.06R

$$

REGIONAL REPORTS     COLORADO/ARIZONA

CITY           SKY/WX    TMP DP  RH WIND       PRES   REMARKS
CRAIG, CO      CLEAR     52  43  71 CALM      30.28R
GRAND JUNCTION CLEAR     72  18  13 E5        30.15R
RIFLE          CLEAR     69  35  28 SE3       30.22R
MONTROSE       CLEAR     72  33  24 SE13      30.27R
CORTEZ         CLEAR     60  35  39 NE7       30.27R
PAGE, AZ       CLEAR     87  26  11 W5        30.14R
GRAND CANYON   CLEAR     54  32  43 NE6       30.38R
KINGMAN        CLEAR     78  32  18 S14       30.11R
FLAGSTAFF      CLEAR     58  37  45 CALM      30.40S

$$

REGIONAL REPORTS    NEVADA/IDAHO/WYOMING

CITY           SKY/WX    TMP DP  RH WIND       PRES   REMARKS
LAS VEGAS, NV  CLEAR     93  35  13 S13       29.94R
ELY            CLEAR     62  27  26 SW13      30.26R
ELKO           MOCLDY    69  50  50 W5        30.20R
POCATELLO, ID  CLEAR     64  55  72 SW10      30.19R
BURLEY         CLOUDY    66  57  72 NW7       30.11F
EVANSTON, WY   CLEAR     63  35  35 N8        30.34R
ROCK SPRINGS   PTCLDY    71  33  24 NE5       30.30S

$$



USA.gov is the U.S. government's official web portal to all federal, state and local government web resources and services.